Regional Weather Roundup
Issued by NWS Little Rock, AR

Home | Current Version | Previous Version | Graphics & Text | Print | Product List | Glossary On
Versions: 1 2 3 4 5 6 7 8 9 10 11 12 13 14 15 16 17 18 19 20 21 22 23 24 25 26 27 28 29 30 31 32 33 34 35 36 37 38 39 40 41 42 43 44 45 46 47 48 49 50
000
ASUS44 KLZK 250505
RWRLZK

WEATHER ROUNDUP FOR ARKANSAS
NATIONAL WEATHER SERVICE LITTLE ROCK AR
1200 AM CDT MON JUL 25 2016

NOTE: "FAIR" INDICATES FEW OR NO CLOUDS BELOW 12,000 FEET WITH NO
SIGNIFICANT WEATHER AND/OR OBSTRUCTIONS TO VISIBILITY.

ARZ001-003-010-029-250600-
NORTHWEST ARKANSAS

CITY           SKY/WX    TMP DP  RH WIND       PRES   REMARKS
FAYETTEVILLE   CLEAR     78  68  71 CALM      30.01S
FORT SMITH     CLEAR     78  72  81 NE6       29.97R
HARRISON       CLEAR     75  71  87 CALM      30.01S
BENTONVILLE    CLEAR     81  72  74 SW6       30.02S
ROGERS         CLEAR     80  72  76 S7        30.02R
SILOAM SPGS    CLEAR     81  64  57 SE3       30.03R
HIGHFILL       CLEAR     80  74  81 SW5       30.02R HX  85
$$

ARZ004-005-016-250600-
NORTH CENTRAL ARKANSAS

CITY           SKY/WX    TMP DP  RH WIND       PRES   REMARKS
BATESVILLE     CLEAR     79  72  78 E5        29.96S
FLIPPIN        CLEAR     79  72  78 W3        29.95S
MTN HOME       CLEAR     76  75  97 CALM      29.97F
$$

ARZ040-041-250600-
WEST CENTRAL ARKANSAS

CITY           SKY/WX    TMP DP  RH WIND       PRES   REMARKS
MENA           CLOUDY    77  73  88 CALM      30.02S
MOUNT IDA      CLOUDY    74  73  97 CALM      29.97S
$$

ARZ009-017-025-026-028-250600-
NORTHEAST ARKANSAS

CITY           SKY/WX    TMP DP  RH WIND       PRES   REMARKS
CORNING          N/A     81  81 100 SW5       29.95F HX  91
JONESBORO      CLOUDY    77  74  90 W3        29.94F
NEWPORT        PTCLDY    79  78  96 SE7       29.96F
WALNUT RIDGE   CLOUDY    79  73  83 S8        29.95S
BLYTHEVILLE    CLEAR     81  77  88 SW3       29.94F HX  88
$$

ARZ022-023-033-042-044-250600-
CENTRAL ARKANSAS

CITY           SKY/WX    TMP DP  RH WIND       PRES   REMARKS
LITTLE ROCK    MOCLDY    78  70  76 S5        29.96S
N LITTLE ROCK    N/A     76  71  83 CALM      29.94S
JACKSONVILLE   PTCLDY    77  72  83 CALM      29.96S
SEARCY         PTCLDY    77  72  84 CALM      29.97F
HOT SPRINGS    CLOUDY    73  72  96 NW5       29.97F
RUSSELLVILLE   CLEAR     74  70  87 CALM      29.96S
$$

ARZ036-250600-
EAST ARKANSAS

CITY           SKY/WX    TMP DP  RH WIND       PRES   REMARKS
WEST MEMPHIS   CLEAR     78  76  93 S6        29.95F
$$

ARZ050-053-066-070-073-250600-
SOUTHWEST ARKANSAS

CITY           SKY/WX    TMP DP  RH WIND       PRES   REMARKS
CAMDEN         CLEAR     75  70  83 CALM      29.96R
TEXARKANA      PTCLDY    76  71  85 S5        29.97F
EL DORADO      CLEAR     74  72  93 CALM      29.97S
DE QUEEN       PTCLDY    77  77 100 CALM      29.95F FOG
$$

ARZ056-057-069-250600-
SOUTHEAST ARKANSAS

CITY           SKY/WX    TMP DP  RH WIND       PRES   REMARKS
PINE BLUFF     PTCLDY    77  74  90 CALM      29.96S
STUTTGART      CLEAR     81  72  74 SW5       29.96S
MONTICELLO     PTCLDY    77  73  87 CALM      29.95F

$$





USA.gov is the U.S. government's official web portal to all federal, state and local government web resources and services.